Location: Carabito
(9.8355°N, 67.9249°W)
Time: 10:40:05
(UTC+00:00)

Ariane H10-3 - Pass Details

Date: 23 May 2024
Orbit: 506 x 36369 km, 4.6° (Epoch: 20 June)

Event Time Altitude Azimuth Distance (km) Brightness Sun altitude
Exits shadow 09:14:18 20° 239° (WSW) 1,455 2.8 -13.5°
Maximum altitude 09:16:11 32° 188° (S) 914 2.2 -13.0°
Drops below altitude 10° 09:19:00 10° 119° (ESE) 1,730 4.4 -12.4°
Sets 09:21:21 0° 108° (ESE) 2,910 5.8 -11.9°
